Mackinac Island, MI

8:30 PM EST on November 20, 2017 (GMT -0500)
Mackinac Island

Weather History for KMCD - January, 2012

Change the Weather History Date:

Saturday, January 21, 2012

  Actual Average Record
Temperature  
Mean Temperature 14 °F -  
Max Temperature 21 °F 21 °F 36 °F (2017)
Min Temperature 6 °F 9 °F -9 °F (2014)
Degree Days  
Heating Degree Days 52    
Moisture  
Dew Point 6 °F    
Average Humidity 69    
Maximum Humidity 87    
Minimum Humidity 43    
Precipitation  
Precipitation 0.00 in - - ()
Sea Level Pressure  
Sea Level Pressure 30.16 in    
Wind  
Wind Speed 4 mph (West)    
Max Wind Speed 8 mph    
Max Gust Speed -    
Visibility 10 miles    
Events      
Averages and records for this station are not official NWS values.
T = Trace of Precipitation, MM = Missing Value Source: NWS Daily Summary

Daily Weather History Graph

Daily Weather History Graph

Search for Another Location

Airport or City:

Trip Planner

Search our weather history database for the weather conditions in past years. The results will help you decide how hot, cold, wet, or windy it might be!

Date:

Astronomy

Jan. 21, 2012 Rise Set
Actual Time 8:12 AM EST 5:27 PM EST
Civil Twilight 7:39 AM EST 6:00 PM EST
Nautical Twilight 7:02 AM EST 6:37 PM EST
Astronomical Twilight 6:27 AM EST 7:12 PM EST
Moon 6:44 AM EST 4:00 PM EST
Length of Visible Light 10h 21m
Length of Day
9h 15m
Waning Crescent, 3% of the Moon is Illuminated
Jan 21
Waning Crescent
Jan 23
New
Jan 30
First Quarter
Feb 7
Full
Feb 14
Last Quarter

Hourly Weather History & Observations

Time (EST) Temp. Windchill Dew Point Humidity Pressure Visibility Wind Dir Wind Speed Gust Speed Precip Events Conditions
12:14 AM 8.6 °F 0.1 °F -5.8 °F 52% 30.11 in 10.0 mi NW 4.6 mph - N/A   Clear
12:35 AM 8.1 °F -2.0 °F -8.7 °F 47% 30.11 in 10.0 mi NW 5.8 mph - N/A   Clear
12:54 AM 8.1 °F -2.0 °F -10.3 °F 43% 30.11 in 10.0 mi NW 5.8 mph - N/A   Clear
1:15 AM 7.7 °F -0.9 °F -8.5 °F 48% 30.11 in 10.0 mi NW 4.6 mph - N/A   Clear
1:35 AM 7.5 °F -2.6 °F -8.9 °F 47% 30.11 in 10.0 mi NW 5.8 mph - N/A   Clear
1:55 AM 7.3 °F -1.3 °F -6.9 °F 52% 30.11 in 10.0 mi WNW 4.6 mph - N/A   Clear
2:15 AM 7.2 °F -1.5 °F -5.4 °F 56% 30.11 in 10.0 mi West 4.6 mph - N/A   Clear
2:35 AM 6.8 °F -0.1 °F -4.0 °F 61% 30.11 in 10.0 mi West 3.5 mph - N/A   Clear
2:54 AM 8.2 °F 1.6 °F -2.2 °F 63% 30.11 in 10.0 mi West 3.5 mph - N/A   Clear
3:14 AM 8.6 °F 2.0 °F 0.5 °F 70% 30.12 in 10.0 mi West 3.5 mph - N/A   Clear
3:35 AM 9.5 °F 3.0 °F 1.2 °F 69% 30.11 in 10.0 mi SW 3.5 mph - N/A   Clear
3:55 AM 9.1 °F - 1.6 °F 71% 30.11 in 10.0 mi Calm Calm - N/A   Clear
4:15 AM 9.3 °F 1.0 °F 3.6 °F 77% 30.10 in 10.0 mi WSW 4.6 mph - N/A   Clear
4:35 AM 11.5 °F 2.1 °F 5.5 °F 77% 30.10 in 10.0 mi WNW 5.8 mph - N/A   Clear
4:54 AM 10.9 °F 2.9 °F 4.6 °F 76% 30.10 in 10.0 mi WNW 4.6 mph - N/A   Clear
5:14 AM 10.6 °F 4.3 °F 5.0 °F 78% 30.10 in 10.0 mi West 3.5 mph - N/A   Clear
5:35 AM 10.8 °F 4.5 °F 5.5 °F 79% 30.10 in 10.0 mi West 3.5 mph - N/A   Scattered Clouds
5:54 AM 10.8 °F 2.7 °F 6.1 °F 81% 30.10 in 10.0 mi West 4.6 mph - N/A   Mostly Cloudy
6:15 AM 10.9 °F 2.9 °F 6.3 °F 81% 30.11 in 10.0 mi West 4.6 mph - N/A   Mostly Cloudy
6:35 AM 11.5 °F - 6.8 °F 81% 30.11 in 10.0 mi Calm Calm - N/A   Overcast
7:15 AM 12.2 °F 6.1 °F 7.7 °F 82% 30.11 in 10.0 mi West 3.5 mph - N/A   Scattered Clouds
7:34 AM 12.7 °F 5.0 °F 8.1 °F 82% 30.12 in 10.0 mi West 4.6 mph - N/A   Clear
7:54 AM 12.9 °F 5.2 °F 8.6 °F 83% 30.12 in 10.0 mi West 4.6 mph - N/A   Clear
8:15 AM 13.5 °F 5.8 °F 9.5 °F 84% 30.12 in 10.0 mi West 4.6 mph - N/A   Clear
8:35 AM 13.1 °F 7.1 °F 9.9 °F 87% 30.13 in 10.0 mi WNW 3.5 mph - N/A   Clear
8:54 AM 13.6 °F 6.0 °F 9.9 °F 85% 30.14 in 10.0 mi NNW 4.6 mph - N/A   Clear
9:15 AM 14.2 °F 6.7 °F 9.3 °F 81% 30.15 in 10.0 mi WNW 4.6 mph - N/A   Clear
9:34 AM 14.7 °F 4.8 °F 8.4 °F 76% 30.16 in 10.0 mi WNW 6.9 mph - N/A   Scattered Clouds
9:54 AM 16.3 °F 7.8 °F 9.1 °F 73% 30.17 in 10.0 mi NW 5.8 mph - N/A   Mostly Cloudy
10:15 AM 15.6 °F 7.0 °F 8.4 °F 73% 30.17 in 10.0 mi NW 5.8 mph - N/A   Scattered Clouds
10:34 AM 15.8 °F 5.1 °F 8.6 °F 73% 30.18 in 10.0 mi WNW 8.1 mph - N/A   Mostly Cloudy
10:54 AM 17.8 °F 8.5 °F 9.5 °F 70% 30.19 in 10.0 mi NW 6.9 mph - N/A   Scattered Clouds
11:15 AM 19.0 °F 10.0 °F 9.5 °F 66% 30.20 in 10.0 mi WNW 6.9 mph - N/A   Scattered Clouds
11:34 AM 19.8 °F 9.9 °F 9.7 °F 65% 30.20 in 10.0 mi NW 8.1 mph - N/A   Scattered Clouds
12:15 PM 20.3 °F 13.8 °F 9.7 °F 64% 30.19 in 10.0 mi West 4.6 mph - N/A   Clear
12:34 PM 20.3 °F 15.4 °F 9.7 °F 64% 30.18 in 10.0 mi WNW 3.5 mph - N/A   Clear
12:54 PM 20.7 °F 14.2 °F 9.3 °F 62% 30.18 in 10.0 mi West 4.6 mph - N/A   Clear
1:15 PM 20.3 °F - 9.5 °F 63% 30.17 in 10.0 mi Calm Calm - N/A   Clear
1:34 PM 20.3 °F 12.5 °F 10.0 °F 65% 30.18 in 10.0 mi WSW 5.8 mph - N/A   Clear
1:54 PM 20.8 °F 13.2 °F 10.0 °F 63% 30.18 in 10.0 mi WSW 5.8 mph - N/A   Mostly Cloudy
2:15 PM 21.4 °F 15.1 °F 10.6 °F 63% 30.19 in 10.0 mi West 4.6 mph - N/A   Overcast
2:34 PM 19.9 °F 10.1 °F 8.1 °F 60% 30.19 in 10.0 mi West 8.1 mph - N/A   Overcast
2:54 PM 19.9 °F 13.4 °F 9.0 °F 62% 30.19 in 10.0 mi WSW 4.6 mph - N/A   Mostly Cloudy
3:15 PM 19.2 °F 11.3 °F 9.1 °F 65% 30.19 in 10.0 mi West 5.8 mph - N/A   Scattered Clouds
3:34 PM 19.0 °F 13.9 °F 9.3 °F 66% 30.19 in 10.0 mi West 3.5 mph - N/A   Scattered Clouds
3:55 PM 19.0 °F - 9.0 °F 65% 30.19 in 10.0 mi Calm Calm - N/A   Scattered Clouds
4:14 PM 18.9 °F 13.7 °F 9.0 °F 65% 30.20 in 10.0 mi West 3.5 mph - N/A   Clear
4:34 PM 18.9 °F 13.7 °F 9.1 °F 66% 30.20 in 10.0 mi West 3.5 mph - N/A   Clear
4:55 PM 18.7 °F - 9.1 °F 66% 30.21 in 10.0 mi Calm Calm - N/A   Clear
5:15 PM 18.5 °F 13.3 °F 9.5 °F 68% 30.21 in 10.0 mi WSW 3.5 mph - N/A   Clear
5:34 PM 18.3 °F - 9.9 °F 70% 30.22 in 10.0 mi Calm Calm - N/A   Clear
5:55 PM 18.5 °F - 10.0 °F 70% 30.22 in 10.0 mi Calm Calm - N/A   Clear
6:14 PM 18.9 °F - 10.4 °F 70% 30.22 in 10.0 mi Calm Calm - N/A   Clear
6:34 PM 19.0 °F - 10.9 °F 71% 30.21 in 10.0 mi Calm Calm - N/A   Clear
6:55 PM 19.4 °F - 10.8 °F 69% 30.22 in 10.0 mi Calm Calm - N/A   Clear
7:15 PM 19.4 °F - 11.1 °F 70% 30.23 in 10.0 mi Calm Calm - N/A   Scattered Clouds
7:34 PM 19.6 °F - 10.4 °F 68% 30.22 in 10.0 mi Calm Calm - N/A   Mostly Cloudy
7:55 PM 19.6 °F - 10.8 °F 69% 30.22 in 10.0 mi Calm Calm - N/A   Scattered Clouds
8:34 PM 19.0 °F 13.9 °F 11.1 °F 71% 30.21 in 10.0 mi SSE 3.5 mph - N/A   Scattered Clouds
8:55 PM 19.0 °F - 11.7 °F 73% 30.21 in 10.0 mi Calm Calm - N/A   Scattered Clouds
9:14 PM 19.0 °F - 12.4 °F 75% 30.21 in 10.0 mi Calm Calm - N/A   Mostly Cloudy
9:34 PM 19.4 °F - 12.9 °F 76% 30.21 in 10.0 mi Calm Calm - N/A   Overcast
9:55 PM 19.6 °F 13.0 °F 12.7 °F 75% 30.20 in 10.0 mi South 4.6 mph - N/A   Scattered Clouds
10:14 PM 19.4 °F 14.3 °F 12.7 °F 75% 30.20 in 10.0 mi South 3.5 mph - N/A   Clear
10:34 PM 18.7 °F 11.9 °F 12.4 °F 76% 30.19 in 10.0 mi South 4.6 mph - N/A   Clear
10:55 PM 18.5 °F 11.7 °F 12.6 °F 78% 30.19 in 10.0 mi South 4.6 mph - N/A   Scattered Clouds
11:14 PM 18.1 °F 12.9 °F 11.8 °F 76% 30.19 in 10.0 mi South 3.5 mph - N/A   Scattered Clouds
11:34 PM 18.0 °F 9.8 °F 11.8 °F 77% 30.19 in 10.0 mi South 5.8 mph - N/A   Clear
11:55 PM 17.6 °F 10.7 °F 11.3 °F 76% 30.19 in 10.0 mi South 4.6 mph - N/A   Clear